| time (UTC) | temp F | wind direction | speed knots | gust knots | rain 1hr in | rain 24hr in | rain mn in | humidity % | barometer mb |
| 20260504081539 | 64 | 196 | 0.0 | 8.7 | 0.00 | 0.00 | 0.00 | 95 | 1012.0 |
| 20260504044534 | 61 | 69 | 0.0 | 1.7 | 0.00 | 0.00 | 0.00 | 97 | 1011.2 |
| 20260504043038 | 61 | 65 | 0.9 | 2.6 | 0.00 | 0.00 | 0.00 | 97 | 1011.2 |
| 20260504041524 | 61 | 72 | 1.7 | 3.5 | 0.00 | 0.00 | 0.00 | 97 | 1011.2 |
| 20260504040024 | 61 | 19 | 0.9 | 2.6 | 0.00 | 0.00 | 0.00 | 97 | 1011.3 |
| 20260504034521 | 61 | 359 | 0.0 | 2.6 | 0.00 | 0.00 | 0.00 | 97 | 1011.4 |
| 20260504033020 | 61 | 1 | 0.0 | 1.7 | 0.00 | 0.00 | 0.00 | 97 | 1011.7 |
| 20260504031520 | 61 | 323 | 0.9 | 2.6 | 0.00 | 0.00 | 0.00 | 97 | 1011.7 |
| 20260504030016 | 62 | 32 | 0.9 | 3.5 | 0.00 | 0.00 | 0.00 | 97 | 1011.8 |
| 20260504024515 | 62 | 62 | 0.0 | 3.5 | 0.00 | 0.00 | 0.00 | 97 | 1011.9 |
| 20260504023014 | 62 | 342 | 0.0 | 2.6 | 0.00 | 0.00 | 0.00 | 97 | 1011.9 |
| 20260504021514 | 62 | 32 | 0.0 | 3.5 | 0.00 | 0.00 | 0.00 | 97 | 1012.0 |
| 20260504020011 | 62 | 59 | 0.9 | 1.7 | 0.00 | 0.00 | 0.00 | 97 | 1012.1 |
| 20260504014510 | 62 | 70 | 0.0 | 0.9 | 0.00 | 0.00 | 0.00 | 97 | 1012.1 |
| 20260504013016 | 63 | 36 | 0.0 | 1.7 | 0.00 | 0.00 | 0.00 | 97 | 1012.1 |
| 20260504011508 | 63 | 75 | 0.0 | 1.7 | 0.00 | 0.00 | 0.00 | 97 | 1012.1 |
| 20260504010007 | 63 | 37 | 0.0 | 1.7 | 0.00 | 0.00 | 0.00 | 97 | 1012.2 |
| 20260504004513 | 63 | 46 | 0.0 | 1.7 | 0.00 | 0.00 | 0.00 | 97 | 1012.3 |
| 20260504003005 | 63 | 47 | 0.9 | 1.7 | 0.00 | 0.00 | 0.00 | 97 | 1012.2 |
| 20260504001505 | 63 | 50 | 0.9 | 1.7 | 0.00 | 0.00 | 0.00 | 97 | 1012.3 |
| 20260504000002 | 63 | 68 | 0.9 | 2.6 | 0.00 | 0.00 | 0.00 | 96 | 1012.3 |
| 20260503234600 | 63 | 58 | 0.0 | 0.9 | 0.00 | 0.00 | 0.00 | 96 | 1012.4 |
| 20260503234501 | 63 | 58 | 0.0 | 0.9 | 0.00 | 0.00 | 0.00 | 96 | 1012.4 |
| 20260503233059 | 63 | 62 | 0.0 | 1.7 | 0.00 | 0.00 | 0.00 | 96 | 1012.5 |
| 20260503231602 | 63 | 65 | 1.7 | 3.5 | 0.00 | 0.00 | 0.00 | 96 | 1012.7 |
| 20260503230105 | 64 | 65 | 0.9 | 5.2 | 0.00 | 0.00 | 0.00 | 95 | 1012.8 |
| 20260503224559 | 64 | 51 | 1.7 | 3.5 | 0.00 | 0.00 | 0.00 | 95 | 1012.8 |
| 20260503223053 | 64 | 50 | 1.7 | 4.3 | 0.00 | 0.00 | 0.00 | 95 | 1012.8 |
| 20260503221552 | 64 | 69 | 0.9 | 3.5 | 0.00 | 0.00 | 0.00 | 95 | 1012.9 |
| 20260503220051 | 64 | 41 | 1.7 | 3.5 | 0.00 | 0.00 | 0.00 | 95 | 1013.0 |
| 20260503214551 | 64 | 62 | 0.9 | 1.7 | 0.00 | 0.00 | 0.00 | 95 | 1013.1 |
| 20260503213100 | 64 | 56 | 0.9 | 3.5 | 0.00 | 0.00 | 0.00 | 95 | 1013.2 |
| 20260503211606 | 64 | 59 | 1.7 | 3.5 | 0.00 | 0.00 | 0.00 | 95 | 1013.2 |
| 20260503210049 | 64 | 63 | 2.6 | 5.2 | 0.00 | 0.00 | 0.00 | 95 | 1013.2 |
| 20260503204549 | 64 | 63 | 3.5 | 6.1 | 0.00 | 0.00 | 0.00 | 94 | 1013.2 |
| 20260503203049 | 64 | 61 | 5.2 | 7.8 | 0.00 | 0.00 | 0.00 | 94 | 1013.0 |
| 20260503201547 | 64 | 74 | 4.3 | 6.1 | 0.00 | 0.00 | 0.00 | 94 | 1012.7 |
| 20260503200056 | 64 | 90 | 4.3 | 9.6 | 0.00 | 0.00 | 0.00 | 94 | 1012.5 |
| 20260503194546 | 63 | 59 | 5.2 | 9.6 | 0.00 | 0.00 | 0.00 | 94 | 1012.1 |
| 20260503193056 | 63 | 75 | 7.8 | 11.3 | 0.00 | 0.00 | 0.00 | 94 | 1011.8 |
| 20260503191548 | 63 | 77 | 7.8 | 10.4 | 0.00 | 0.00 | 0.00 | 94 | 1011.5 |
| 20260503190050 | 64 | 69 | 7.8 | 11.3 | 0.00 | 0.00 | 0.00 | 94 | 1011.4 |
| 20260503184556 | 64 | 68 | 9.6 | 12.2 | 0.00 | 0.00 | 0.00 | 94 | 1011.4 |
| 20260503183142 | 64 | 69 | 8.7 | 11.3 | 0.00 | 0.00 | 0.00 | 93 | 1011.5 |
| 20260503181602 | 64 | 65 | 8.7 | 10.4 | 0.00 | 0.00 | 0.00 | 93 | 1011.2 |
| 20260503180051 | 64 | 50 | 8.7 | 10.4 | 0.00 | 0.00 | 0.00 | 93 | 1011.2 |
| 20260503174546 | 64 | 77 | 7.8 | 10.4 | 0.00 | 0.00 | 0.00 | 92 | 1011.1 |
| 20260503173053 | 64 | 63 | 8.7 | 11.3 | 0.00 | 0.00 | 0.00 | 91 | 1011.0 |
| 20260503171538 | 64 | 61 | 7.8 | 10.4 | 0.00 | 0.00 | 0.00 | 90 | 1011.0 |